Dewpoint
57 57 55 54 55 54 55 54 54 54 54 54 54 53 53 53 54 54 54 54 55 54 55 55 55 57 53 45 37 46 69 65 62 41 32 33 47 49 48 53 62 60 60 60 61 60 60
58 57 56 55 54 54 54 53 54 54 53 54 55 54 54 54 54 54 54 54 54 54 55 55 56 56 49 27 34 58 55 50 39 35 32 40 51 51 46 48 56 59 59 59 60 59 60
59 58 57 56 55 55 53 55 55 55 55 55 55 55 55 54 54 54 54 54 55 55 54 55 56 53 47 30 40 49 38 32 26 31 41 35 48 51 46 38 57 55 57 60 58 58 57
59 58 57 56 56 55 56 55 55 56 56 56 54 54 54 54 54 54 54 55 55 55 55 56 57 51 39 39 38 36 39 29 21 28 32 48 50 48 42 35 33 54 57 54 58 59 59
61 59 58 57 56 56 56 56 56 56 56 55 54 54 54 54 54 53 53 54 54 55 56 58 50 48 37 47 37 33 37 31 21 24 31 35 41 39 34 30 32 41 49 52 56 57 59
61 60 57 57 56 56 56 57 56 56 56 55 54 54 53 53 53 54 53 53 53 53 55 53 47 43 42 35 27 29 35 32 25 27 32 33 35 32 28 28 28 33 46 51 51 58 58
61 60 58 57 56 56 56 56 56 56 56 54 54 54 53 53 53 53 50 47 45 46 48 34 33 41 39 35 34 27 30 29 26 32 31 35 28 25 26 28 29 31 31 34 54 58 55
60 60 59 58 57 56 56 56 56 56 56 55 54 54 53 53 52 53 49 43 43 33 24 44 37 39 38 36 29 27 30 26 29 32 36 31 27 28 29 30 30 32 31 46 56 55 55
59 59 59 57 57 56 56 56 56 56 56 56 56 54 53 52 52 49 44 40 41 37 28 24 38 38 37 33 30 26 31 33 32 33 32 29 27 29 30 29 29 29 29 36 50 54 55
58 59 59 57 57 56 56 56 56 55 55 56 56 54 53 52 45 45 39 39 40 35 22 21 20 20 23 30 26 31 34 34 31 30 30 29 30 29 28 29 29 23 24 26 53 50 47
59 59 59 58 57 55 55 55 55 55 55 55 55 55 53 51 47 40 34 37 40 27 18 28 18 20 22 22 29 32 33 34 32 26 26 25 28 27 27 29 28 24 24 25 49 47 48
58 59 59 59 57 55 55 55 55 55 55 55 55 54 53 49 49 47 45 43 30 23 19 31 24 28 20 19 22 23 30 31 31 28 27 24 25 25 25 24 22 22 25 38 46 49 43
58 58 59 58 57 55 55 55 55 55 54 54 53 52 51 48 38 41 40 34 26 23 34 30 31 31 25 16 17 18 24 27 26 24 24 25 26 26 22 20 21 21 23 28 33 39 38
58 58 58 58 57 55 55 55 55 54 54 53 52 51 50 49 47 44 40 33 30 31 32 32 31 23 24 19 16 17 22 27 30 28 26 25 24 24 23 21 19 19 21 30 30 33 35
57 58 58 58 57 55 55 55 55 54 53 52 51 47 47 46 48 44 38 33 35 33 33 31 29 25 29 31 35 34 36 28 29 28 26 26 25 26 23 20 21 19 26 29 31 34 28
57 57 57 58 57 54 55 55 55 54 53 52 47 43 39 43 45 43 36 34 36 37 35 34 26 30 31 33 34 38 39 37 34 33 33 28 26 29 28 21 23 24 28 28 27 25 25
55 57 57 58 57 54 55 55 54 53 52 51 47 35 37 39 44 39 35 35 37 37 37 32 27 31 35 35 37 38 40 37 34 35 34 35 31 28 32 24 22 27 29 31 27 29 27
57 57 57 57 54 54 55 55 54 53 52 50 43 35 39 40 37 42 37 41 39 36 36 30 31 37 37 39 35 38 39 37 40 37 32 34 31 30 31 34 30 32 30 31 27 25 36
56 57 57 57 55 55 55 55 54 52 52 49 41 39 40 36 34 37 41 38 38 37 33 28 28 29 38 36 33 37 38 40 40 32 30 29 32 30 29 30 30 24 27 29 29 29 29
57 56 57 57 55 55 55 54 53 53 52 49 42 36 27 29 37 35 36 38 33 34 33 27 28 26 29 32 35 32 36 36 35 33 49 42 33 32 31 30 32 29 28 25 23 25 43
57 57 57 57 55 55 55 55 54 53 51 48 43 33 24 20 22 30 37 35 27 23 26 30 30 32 32 30 31 30 32 30 27 46 38 34 34 34 32 32 33 30 29 23 28 38 39
57 57 57 57 55 55 55 55 55 53 51 48 40 39 41 35 26 23 29 23 22 22 21 24 35 33 32 31 31 31 29 30 31 32 35 32 31 34 31 32 28 21 22 23 38 45 50
56 56 57 57 54 55 55 55 55 53 49 47 48 45 43 41 26 25 27 27 28 30 27 31 35 37 31 30 32 31 30 29 30 30 32 32 32 36 32 33 27 22 25 29 40 47 51
56 57 57 54 54 55 55 55 55 54 52 46 48 46 44 40 25 23 21 26 27 30 27 27 30 33 33 32 30 33 29 29 28 29 32 31 31 32 33 30 25 25 26 41 46 48 51
56 56 53 53 53 55 56 56 56 55 53 47 45 45 46 42 33 25 24 25 29 29 27 29 29 30 31 28 28 27 26 25 27 27 24 32 32 31 35 31 25 28 28 28 42 48 52
56 55 53 53 53 54 55 56 56 55 54 48 45 50 48 43 27 32 30 32 31 30 29 28 30 33 33 31 31 27 33 35 34 33 24 24 33 33 33 32 28 31 31 31 43 45 51
55 56 53 52 53 53 54 55 56 56 54 50 46 49 47 44 39 29 32 29 34 35 31 29 26 29 32 35 34 34 35 41 36 34 33 27 29 25 29 27 33 38 41 39 33 39 48
55 56 54 52 53 54 54 55 55 55 55 52 48 52 45 44 44 35 38 36 36 35 32 33 36 34 33 35 37 36 35 37 35 37 33 33 28 30 29 28 27 42 40 37 41 45 48
55 55 54 51 53 53 53 54 55 55 55 54 50 52 53 45 43 38 36 36 35 37 35 37 32 32 32 35 38 38 35 36 34 31 36 33 34 37 38 37 41 41 41 42 41 45 45
Lifted_Index
15 15 16 17 17 16 16 16 16 16 16 15 15 14 14 14 14 14 14 14 15 15 15 15 14 14 12 11 10 8 5 5 7 10 8 4 1 -0 -1 -1 -2 -2 -2 -2 -2 -2 -2
15 15 16 16 16 16 16 16 16 16 16 15 14 14 14 14 14 14 14 14 14 15 15 15 14 13 12 10 9 8 7 7 9 10 8 3 1 1 0 -0 -1 -2 -2 -2 -2 -2 -2
14 15 15 16 16 16 16 16 16 15 15 15 14 14 14 14 14 14 14 14 14 14 14 14 13 12 11 10 9 8 8 10 11 10 7 3 2 2 2 2 0 -1 -2 -2 -2 -2 -2
12 14 15 15 16 16 16 15 15 15 14 14 14 13 14 14 14 14 14 14 14 13 13 12 12 11 11 10 10 9 9 10 11 10 7 4 3 4 4 3 2 0 -1 -2 -2 -2 -2
12 13 14 15 16 16 16 15 15 14 14 13 13 13 13 13 14 14 14 14 13 12 11 11 11 10 10 10 10 9 9 10 11 10 6 4 4 4 4 3 2 1 -0 -1 -2 -3 -3
11 12 13 15 15 16 15 15 14 14 13 12 12 12 13 13 13 13 13 11 10 10 10 10 10 9 9 9 9 9 9 9 10 8 6 5 4 3 2 2 1 1 -0 -1 -2 -3 -3
11 12 13 14 15 16 15 15 14 13 12 11 11 11 12 12 12 11 10 9 8 8 9 9 9 8 8 8 8 8 8 9 9 7 6 5 4 3 1 1 1 0 -0 -1 -2 -2 -2
11 11 12 14 15 16 15 15 14 13 11 10 10 10 10 11 10 10 9 8 8 8 8 8 8 8 7 7 7 7 8 8 7 7 6 6 5 3 1 0 0 -0 -0 -0 -1 -2 -2
11 11 12 13 15 15 15 14 13 12 11 10 9 9 9 9 9 8 7 7 7 7 7 7 7 7 7 7 7 7 7 7 6 6 6 6 5 4 3 1 -0 -0 0 -0 -1 -2 -1
11 11 11 13 14 15 15 14 13 11 10 10 9 8 8 8 7 7 6 6 6 6 6 5 6 6 6 6 6 6 6 5 5 5 6 6 5 5 4 3 1 0 1 0 -1 -2 -1
11 10 11 12 14 15 14 13 12 10 10 9 8 8 7 7 6 5 5 5 5 5 4 3 4 5 5 5 4 4 5 4 4 5 6 6 6 6 5 4 3 2 1 0 -1 -1 -1
11 11 11 12 13 14 13 12 11 10 9 9 8 8 7 6 5 4 4 4 4 3 2 2 2 3 3 3 4 4 4 4 4 5 5 6 6 6 5 5 4 3 2 1 -1 -1 -1
11 11 10 11 12 13 13 11 10 9 8 8 8 8 7 6 5 4 3 3 2 2 1 0 1 1 2 3 3 3 3 4 4 4 5 5 5 5 5 5 5 4 3 1 -1 -1 -1
11 10 9 9 10 12 12 11 10 9 8 8 7 7 7 5 4 3 2 1 1 0 0 0 0 1 2 2 2 3 3 3 3 3 4 4 4 4 5 5 4 4 3 1 0 -0 -0
10 10 9 8 9 11 11 10 9 8 8 7 7 6 5 4 3 2 1 1 0 0 0 0 1 1 1 1 1 1 2 2 2 2 2 3 3 3 4 4 4 3 2 1 0 0 -0
10 9 8 7 8 10 11 9 9 8 7 7 5 4 3 2 1 1 1 1 1 0 0 1 1 1 1 1 0 -0 -0 0 0 0 1 2 2 3 3 3 3 3 2 1 1 0 0
9 8 7 6 8 10 10 9 8 8 7 6 4 3 2 2 1 1 1 1 1 1 1 1 1 1 0 0 -0 -1 -1 -1 -0 -0 1 2 2 2 2 2 3 3 2 1 1 0 -0
8 7 6 6 9 10 9 8 8 8 7 5 3 2 1 1 1 1 1 1 1 0 1 1 1 1 0 -0 -0 -1 -1 -1 -0 0 0 1 1 2 2 1 1 2 2 1 0 0 -0
7 7 6 6 9 10 9 8 8 7 6 4 3 2 1 1 1 1 1 0 0 0 1 1 1 1 1 0 0 -0 -0 -0 0 0 0 0 1 1 1 0 -0 0 1 0 0 -0 -0
6 6 6 6 7 9 9 8 7 6 5 3 2 2 2 1 1 1 0 0 0 0 1 1 1 1 1 0 0 0 0 0 0 0 1 0 -0 -0 -0 -0 -0 -0 0 -0 -0 -0 -0
6 6 6 5 5 7 8 8 7 5 3 2 2 2 2 1 1 1 1 1 1 1 1 1 0 0 0 0 0 0 1 1 1 1 1 1 -0 -0 -0 -0 0 0 0 0 -0 -1 -1
6 6 5 5 5 6 7 8 7 5 3 2 2 2 1 1 2 2 1 1 1 1 1 1 0 -0 -0 -0 -0 0 1 1 1 1 1 1 0 -0 -0 0 1 1 1 0 -1 -2 -2
6 6 5 5 5 6 7 7 7 5 3 2 2 1 1 1 2 2 2 2 2 2 2 2 1 0 -0 -0 -0 0 1 1 1 1 1 1 1 0 0 0 1 1 1 -1 -2 -3 -3
6 5 5 6 7 8 8 7 6 6 4 3 2 1 0 1 2 3 2 2 2 2 3 3 2 1 0 0 0 0 1 1 1 1 1 1 1 1 1 1 1 2 0 -1 -2 -2 -2
6 6 7 9 9 9 8 7 6 6 5 3 2 2 1 1 2 3 2 2 2 2 2 3 3 2 1 1 1 0 0 0 0 1 1 1 1 1 1 1 1 2 1 -1 -2 -2 -2
6 7 9 10 10 9 8 7 6 6 5 3 2 2 1 1 2 2 2 2 2 2 2 3 3 3 2 1 1 0 -0 -0 -0 0 1 1 2 1 1 1 1 2 2 1 -1 -1 -1
6 7 10 10 10 9 8 7 6 6 5 3 2 2 1 1 2 2 2 2 2 2 2 2 3 2 2 1 0 0 -0 -0 -1 -0 0 1 1 1 1 1 1 1 2 1 1 -0 -1
5 6 9 10 10 9 8 7 6 6 5 3 2 2 1 1 2 2 2 2 2 2 2 2 2 2 2 1 1 0 1 0 0 -0 0 0 1 1 1 1 1 1 1 1 1 0 -1
4 5 8 10 10 9 8 7 6 6 4 2 2 2 1 1 2 2 3 3 2 2 2 2 2 2 2 1 1 1 1 1 1 0 0 0 0 0 0 1 1 1 1 1 0 -1 -1